Weather History for Manassas, VA

Change the Weather History Date:

Thursday, February 7, 2013

  Actual Average Record
Temperature  
Mean Temperature 32 °F -  
Max Temperature 41 °F 44 °F 66 °F (2009)
Min Temperature 23 °F 23 °F 12 °F (2007)
Degree Days  
Heating Degree Days 33    
Moisture  
Dew Point 26 °F    
Average Humidity 83    
Maximum Humidity 100    
Minimum Humidity 56    
Precipitation  
Precipitation 0.00 in - - ()
Sea Level Pressure  
Sea Level Pressure 30.35 in    
Wind  
Wind Speed 2 mph (East)    
Max Wind Speed 9 mph    
Max Gust Speed -    
Visibility 10 miles    
Events      
Averages and records for this station are not official NWS values.
T = Trace of Precipitation, MM = Missing Value Source: NWS Daily Summary

Daily Weather History Graph

Daily Weather History Graph

Search for Another Location

Airport:

Trip Planner

Search our weather history database for the weather conditions in past years. The results will help you decide how hot, cold, wet, or windy it might be!

Date:

Astronomy

Feb. 07, 2013 Rise Set
Actual Time 7:09 AM EST 5:39 PM EST
Civil Twilight 6:42 AM EST 6:06 PM EST
Nautical Twilight 6:10 AM EST 6:38 PM EST
Astronomical Twilight 5:39 AM EST 7:09 PM EST
Moon 4:46 AM EST (2/7) 3:02 PM EST (2/7)
Length of Visible Light 11h 24m
Length of Day
10h 29m
Waning Crescent, 9% of the Moon is Illuminated
Feb 7
Waning Crescent
Feb 10
New
Feb 17
First Quarter
Feb 25
Full
Mar 4
Last Quarter

Hourly Weather History & Observations

Time (EST) Temp. Windchill Dew Point Humidity Pressure Visibility Wind Dir Wind Speed Gust Speed Precip Events Conditions
12:15 AM 24.8 °F 20.5 °F 24.8 °F 100% 30.37 in 10.0 mi WSW 3.5 mph - N/A   Clear
12:35 AM 24.8 °F - 23.0 °F 93% 30.38 in 10.0 mi Calm Calm - N/A   Clear
12:55 AM 24.8 °F - 23.0 °F 93% 30.39 in 10.0 mi Calm Calm - N/A   Clear
1:15 AM 24.8 °F - 23.0 °F 93% 30.40 in 10.0 mi Calm Calm - N/A   Clear
1:35 AM 24.8 °F - 23.0 °F 93% 30.40 in 10.0 mi Calm Calm - N/A   Clear
1:55 AM 23.0 °F - 21.2 °F 93% 30.40 in 10.0 mi Calm Calm - N/A   Clear
2:15 AM 23.0 °F - 21.2 °F 93% 30.41 in 10.0 mi Calm Calm - N/A   Clear
2:35 AM 23.0 °F - 21.2 °F 93% 30.41 in 10.0 mi Calm Calm - N/A   Clear
2:55 AM 23.0 °F - 21.2 °F 93% 30.40 in 10.0 mi Calm Calm - N/A   Clear
3:15 AM 23.0 °F - 21.2 °F 93% 30.40 in 10.0 mi Calm Calm - N/A   Clear
3:35 AM 24.8 °F - 24.8 °F 100% 30.38 in 10.0 mi Calm Calm - N/A   Clear
3:55 AM 24.8 °F - 24.8 °F 100% 30.38 in 9.0 mi Calm Calm - N/A   Clear
4:15 AM 24.8 °F - 24.8 °F 100% 30.39 in 10.0 mi Calm Calm - N/A   Clear
4:35 AM 24.8 °F - 24.8 °F 100% 30.39 in 10.0 mi Calm Calm - N/A   Clear
4:55 AM 24.8 °F - 24.8 °F 100% 30.40 in 10.0 mi Calm Calm - N/A   Partly Cloudy
5:15 AM 24.8 °F - 23.0 °F 93% 30.40 in 10.0 mi Calm Calm - N/A   Partly Cloudy
5:35 AM 24.8 °F - 24.8 °F 100% 30.40 in 8.0 mi Calm Calm - N/A   Partly Cloudy
5:55 AM 24.8 °F - 24.8 °F 100% 30.41 in 8.0 mi Calm Calm - N/A   Clear
6:15 AM 24.8 °F - 23.0 °F 93% 30.42 in 9.0 mi Calm Calm - N/A   Scattered Clouds
6:45 AM 26.6 °F - 24.8 °F 93% 30.42 in 10.0 mi Calm Calm - N/A   Mostly Cloudy
7:45 AM 28.4 °F - 28.4 °F 100% 30.43 in 8.0 mi Calm Calm - N/A   Overcast
8:45 AM 30.2 °F - 28.4 °F 93% 30.45 in 10.0 mi Calm Calm - N/A   Overcast
10:45 AM 35.6 °F - 26.6 °F 70% 30.44 in 8.0 mi Calm Calm - N/A   Overcast
11:55 AM 37.4 °F 33.8 °F 24.8 °F 60% 30.40 in 10.0 mi ESE 4.6 mph - N/A   Scattered Clouds
12:55 PM 39.2 °F 35.0 °F 24.8 °F 56% 30.38 in 10.0 mi ESE 5.8 mph - N/A   Scattered Clouds
1:45 PM 39.2 °F 37.0 °F 24.8 °F 56% 30.35 in 10.0 mi SE 3.5 mph - N/A   Scattered Clouds
4:45 PM 41.0 °F 35.2 °F 26.6 °F 57% 30.29 in 10.0 mi SSE 9.2 mph - N/A   Overcast
5:45 PM 39.2 °F 35.9 °F 28.4 °F 65% 30.30 in 10.0 mi SSE 4.6 mph - N/A   Overcast
6:45 PM 39.2 °F 34.2 °F 28.4 °F 65% 30.31 in 10.0 mi SE 6.9 mph - N/A   Overcast
8:15 PM 37.4 °F 34.9 °F 28.4 °F 70% 30.28 in 10.0 mi East 3.5 mph - N/A   Mostly Cloudy
8:35 PM 37.4 °F - 28.4 °F 70% 30.27 in 10.0 mi Calm Calm - N/A   Overcast
8:55 PM 37.4 °F - 28.4 °F 70% 30.27 in 10.0 mi Calm Calm - N/A   Overcast
9:15 PM 37.4 °F 33.8 °F 28.4 °F 70% 30.26 in 10.0 mi NE 4.6 mph - N/A   Overcast
9:35 PM 37.4 °F 34.9 °F 28.4 °F 70% 30.26 in 10.0 mi ENE 3.5 mph - N/A   Overcast
9:55 PM 37.4 °F 34.9 °F 28.4 °F 70% 30.25 in 10.0 mi ENE 3.5 mph - N/A   Overcast
10:15 PM 37.4 °F 34.9 °F 28.4 °F 70% 30.25 in 10.0 mi NE 3.5 mph - N/A   Overcast
10:35 PM 37.4 °F 33.8 °F 30.2 °F 75% 30.23 in 10.0 mi ENE 4.6 mph - N/A   Overcast
10:55 PM 37.4 °F 32.8 °F 30.2 °F 75% 30.22 in 10.0 mi ENE 5.8 mph - N/A   Overcast
11:15 PM 37.4 °F 33.8 °F 30.2 °F 75% 30.21 in 10.0 mi NE 4.6 mph - N/A   Overcast
11:35 PM 37.4 °F 32.1 °F 32.0 °F 81% 30.21 in 10.0 mi NE 6.9 mph - N/A   Overcast
11:55 PM 37.4 °F 32.1 °F 32.0 °F 81% 30.20 in 10.0 mi NE 6.9 mph - N/A   Overcast